Location: Unspecified
(0.0000°N, 0.0000°E)
Time: 09:26:48
(UTC+00:00)

ISS - Pass Details

Date: 13 November 2025
Orbit: 415 x 421 km, 51.6° (Epoch: 12 November)

Event Time Altitude Azimuth Distance (km) Brightness Sun altitude
Exits shadow 03:53:39 21° 153° (SSE) 1,005 -1.4 -26.2°
Drops below altitude 10° 03:54:53 10° 150° (SSE) 1,494 -0.4 -25.9°
Sets 03:56:59 0° 148° (SSE) 2,360 0.8 -25.4°
